This is the latest recevied weather packets stored in our database for station/object KL4TQ. If no packets are shown the sender has not sent any weather packets the latest 10 day(s).
| Time | Temp. | Humidity | Pressure | Rain* | Wind** | Luminosity | Snow |
|---|---|---|---|---|---|---|---|
| 1777521368 | 6.11° C | 51% | 857 hPa | 0 mm | - | 181 W/m² | - |
| 1777521069 | 6.11° C | 50% | 857 hPa | 0 mm | - | 191 W/m² | - |
| 1777520768 | 5.56° C | 51% | 857 hPa | 0 mm | - | 205 W/m² | - |
| 1777520468 | 5.56° C | 54% | 857 hPa | 0 mm | - | 196 W/m² | - |
| 1777520169 | 5° C | 53% | 857 hPa | 0 mm | - | 195 W/m² | - |
| 1777519868 | 5° C | 53% | 856 hPa | 0 mm | - | 72 W/m² | - |
| 1777519575 | 5.56° C | 51% | 856 hPa | 0 mm | - | 77 W/m² | - |
| 1777519269 | 5.56° C | 49% | 857 hPa | 0 mm | - | 68 W/m² | - |
| 1777518968 | 6.11° C | 48% | 857 hPa | 0 mm | - | 68 W/m² | - |
| 1777518668 | 6.67° C | 45% | 857 hPa | 0 mm | - | 67 W/m² | - |
| 1777518368 | 7.22° C | 43% | 857 hPa | 0 mm | - | 69 W/m² | - |
| 1777518069 | 7.22° C | 42% | 857 hPa | 0 mm | - | 297 W/m² | - |
| 1777517769 | 7.78° C | 44% | 857 hPa | 0 mm | - | 307 W/m² | - |
| 1777517468 | 7.78° C | 43% | 857 hPa | 0 mm | - | 320 W/m² | - |
| 1777517169 | 7.22° C | 44% | 857 hPa | 0 mm | - | 333 W/m² | - |
| 1777516869 | 7.22° C | 48% | 857 hPa | 0 mm | - | 349 W/m² | - |
| 1777516569 | 7.22° C | 48% | 857 hPa | 0 mm | - | 362 W/m² | - |
| 1777516269 | 6.67° C | 49% | 857 hPa | 0 mm | - | 381 W/m² | - |
| 1777515968 | 6.67° C | 51% | 857 hPa | 0 mm | - | 398 W/m² | - |
| 1777515668 | 6.67° C | 51% | 857 hPa | 0 mm | - | 413 W/m² | - |
| 1777515370 | 6.67° C | 51% | 857 hPa | 0 mm | - | 426 W/m² | - |
| 1777515068 | 6.67° C | 50% | 857 hPa | 0 mm | - | 433 W/m² | - |
| 1777514769 | 6.67° C | 52% | 857 hPa | 0 mm | - | 441 W/m² | - |
| 1777514468 | 6.11° C | 53% | 857 hPa | 0 mm | - | 407 W/m² | - |
| 1777514168 | 5.56° C | 55% | 857 hPa | 0 mm | - | 440 W/m² | - |
* Rain latest hour (hover to see other rain measurements)
** Current wind speed in m/s (hover to see current wind gust speed)